User: anonymous   Login
Location: Unspecified
(0.0000°N, 0.0000°E)
Time: 21:50:08
(UTC+00:00)
Language:

FO-29 - Orbit

View from above orbital plane
View from above orbital plane
View from above satellite
View from above satellite

Ground track
Ground track

The orbit data is extracted from the following two-line orbital elements,

1 24278U 96046B   18145.82453439 -.00000015 +00000-0 +19683-4 0  9993
2 24278 098.5192 347.6632 0350587 168.7860 192.1357 13.53083544074964
Epoch (UTC): 25 May 2018 19:47:19
Eccentricity: 0.0350587
inclination: 98.5192°
perigee height: 800 km
apogee height: 1322 km
right ascension of ascending node: 347.6632°
argument of perigee: 168.7860°
revolutions per day: 13.53083544
mean anomaly at epoch: 192.1357°
orbit number at epoch: 7496

The dashed part of the orbit path shows where the satellite is in the earth's shadow,  

DLR